[ hide orbit diagram ]
For accurate long-term ephemerides, please instead use our Horizons system.This orbit viewer was implemented using two-body methods, and hence should not be used for determining accurate long-term trajectories (over several years or decades) or planetary encounter circumstances.
Orbital Elements at Epoch 2459000.5 (2020-May-31.0) TDB
Reference: JPL 36 (heliocentric ecliptic J2000)
Element | Value | Uncertainty (1-sigma) | Units |
e | .149403862712181 | 4.2036e-08 | |
a | 3.104752270633258 | 1.5759e-08 | au |
q | 2.640890288636235 | 1.2949e-07 | au |
i | 10.42841769683626 | 3.9764e-06 | deg |
node | 147.4005411793195 | 2.2311e-05 | deg |
peri | 228.1594275637996 | 2.5451e-05 | deg |
M | 49.0122249923239 | 1.1437e-05 | deg |
tp | 2458728.454983482618 (2019-Sep-01.95498348) | 6.3786e-05 | TDB |
period | 1998.19955045085 5.47 | 1.5214e-05 4.165e-08 | d yr |
n | .1801621864636962 | 1.3717e-09 | deg/d |
Q | 3.568614252630281 | 1.8114e-08 | au |
|
| | Orbit Determination Parameters
Additional Information
|
[ show covariance matrix ]
Physical Parameter Table
Parameter |
Symbol |
Value |
Units |
Sigma |
Reference |
Notes |
absolute magnitude |
H |
12.8 |
|
n/a |
MPO502285 |
|
diameter |
diameter |
20.225 |
km |
0.077 |
urn:nasa:pds:neowise_diameters_albedos::2.0[mainbelt] (http://adsabs.harvard.edu/abs/2011ApJ...741...68M) |
|
rotation period |
rot_per |
9.125 |
h |
n/a |
LCDB (Rev. 2020-October); Warner et al., 2009 |
Result based on less than full coverage, so that the period may be wrong by 30 percent or so. Published Reference List: [Waszczak, A.; Chang, C.-K.; Ofeck, E.O.; Laher, F.; et al. (2015) Astron. J. 150, A75.] |
geometric albedo |
albedo |
0.046 |
|
0.001 |
urn:nasa:pds:neowise_diameters_albedos::2.0[mainbelt] (http://adsabs.harvard.edu/abs/2011ApJ...741...68M) |
|
|
15153 (2000 FD17) Discovered 2000-Mar-28 by LINEAR at Socorro |
Reference: 20000523/Numbers.arc | Last Updated: 2004-04-19 |
|
[ show close-approach data ]
Alternate Designations
2000 FD17 = 1981 WH1 = 1983 CF4 = 1987 YA2 = 1994 CE6 |
|
|